EW4931 Weather Reports


time (UTC)temp
C
wind
direction
speed
KPH
gust
KPH
rain 1hr
cm
rain 24hr
cm
rain mn
cm
humidity
%
barometer
mb
20240418163938 3 133 8.0 14.5 0.00 0.00 0.00 73 1013.2
20240418162504 3 120 9.7 14.5 0.00 0.00 0.00 73 1013.2
20240418162003 3 62 8.0 14.5 0.00 0.00 0.00 73 1013.2
20240418161505 3 121 9.7 14.5 0.00 0.00 0.00 73 1013.2
20240418161224 3 59 6.4 16.1 0.00 0.00 0.00 74 1013.1
20240418160504 3 86 11.3 17.7 0.00 0.00 0.00 73 1013.2
20240418160006 3 100 11.3 17.7 0.00 0.00 0.00 73 1013.2
20240418155505 3 58 11.3 17.7 0.00 0.00 0.00 74 1013.2
20240418155004 3 118 9.7 17.7 0.00 0.00 0.00 74 1013.2
20240418154503 3 83 9.7 14.5 0.00 0.00 0.00 74 1013.2
20240418154003 3 114 8.0 14.5 0.00 0.00 0.00 74 1013.2
20240418153507 3 148 6.4 16.1 0.00 0.00 0.00 75 1013.2
20240418153228 3 131 8.0 16.1 0.00 0.00 0.00 75 1013.2
20240418152431 3 107 9.7 16.1 0.00 0.00 0.00 74 1013.1
20240418152157 3 127 6.4 16.1 0.00 0.00 0.00 74 1013.2
20240418151431 3 65 9.7 16.1 0.00 0.00 0.00 73 1013.1
20240418150934 3 83 6.4 11.3 0.00 0.00 0.00 74 1013.2
20240418150430 3 147 8.0 16.1 0.00 0.00 0.00 75 1013.1
20240418145930 3 114 9.7 16.1 0.00 0.00 0.00 75 1013.2
20240418145430 3 90 9.7 16.1 0.00 0.00 0.00 76 1013.2
20240418144929 3 75 8.0 16.1 0.00 0.00 0.00 76 1013.2
20240418144912 3 97 9.7 14.5 0.00 0.00 0.00 77 1013.2
20240418143929 3 72 8.0 14.5 0.00 0.00 0.00 77 1013.2
20240418143654 3 96 9.7 14.5 0.00 0.00 0.00 77 1013.2
20240418142929 3 165 6.4 17.7 0.00 0.00 0.00 78 1013.2
20240418142428 3 128 11.3 17.7 0.00 0.00 0.00 78 1013.3
20240418141929 3 103 8.0 16.1 0.00 0.00 0.00 79 1013.2
20240418141429 3 158 9.7 19.3 0.00 0.00 0.00 79 1013.3
20240418140928 3 125 9.7 19.3 0.00 0.00 0.00 79 1013.3
20240418140428 3 100 6.4 11.3 0.00 0.00 0.00 80 1013.3
20240418140152 3 109 6.4 16.1 0.00 0.00 0.00 80 1013.4
20240418135919 3 127 9.7 16.1 0.00 0.00 0.00 79 1013.3
20240418134932 3 69 8.0 17.7 0.00 0.00 0.00 80 1013.3
20240418134431 3 86 9.7 17.7 0.00 0.00 0.00 79 1013.3
20240418133930 3 106 9.7 11.3 0.00 0.00 0.00 80 1013.3
20240418133430 3 79 9.7 16.1 0.00 0.00 0.00 79 1013.4
20240418133155 3 97 9.7 17.7 0.00 0.00 0.00 79 1013.4
20240418132431 3 42 11.3 17.7 0.00 0.00 0.00 81 1013.3
20240418131929 3 56 6.4 14.5 0.00 0.00 0.00 82 1013.4
20240418131429 3 83 8.0 14.5 0.00 0.00 0.00 82 1013.4
20240418130928 3 97 8.0 19.3 0.00 0.00 0.00 83 1013.4
20240418130650 3 113 9.7 19.3 0.00 0.00 0.00 85 1013.4
20240418130147 3 133 6.4 14.5 0.00 0.00 0.00 85 1013.4
20240418125429 3 48 6.4 9.7 0.00 0.00 0.00 86 1013.4
20240418124929 3 32 4.8 9.7 0.00 0.00 0.00 88 1013.4
20240418124428 2 52 6.4 9.7 0.00 0.00 0.00 89 1013.4
20240418123929 2 14 6.4 9.7 0.00 0.00 0.00 89 1013.4
20240418123650 2 58 1.6 14.5 0.00 0.00 0.00 88 1013.5
20240418122929 2 54 8.0 14.5 0.00 0.00 0.00 87 1013.5
20240418122652 3 39 6.4 14.5 0.00 0.00 0.00 87 1013.6
20240418121927 3 157 6.4 11.3 0.00 0.00 0.00 87 1013.4
20240418121427 3 37 4.8 11.3 0.00 0.00 0.00 87 1013.5
20240418120927 3 102 9.7 11.3 0.00 0.00 0.00 88 1013.5
20240418120427 3 68 4.8 9.7 0.00 0.00 0.00 88 1013.5
20240418115929 2 51 4.8 8.0 0.00 0.00 0.00 89 1013.6
20240418115427 2 39 3.2 14.5 0.00 0.00 0.00 89 1013.5
20240418115153 2 99 6.4 14.5 0.00 0.00 0.00 89 1013.6
20240418114426 2 99 9.7 14.5 0.00 0.00 0.00 88 1013.7
20240418113927 2 99 6.4 11.3 0.00 0.00 0.00 88 1013.7
20240418113426 2 135 4.8 11.3 0.00 0.00 0.00 87 1013.7
20240418112926 3 68 9.7 17.7 0.00 0.00 0.00 86 1013.6
20240418112428 3 65 11.3 17.7 0.00 0.00 0.00 84 1013.6
20240418111926 3 42 8.0 14.5 0.00 0.00 0.00 85 1013.5
20240418111426 3 107 0.0 14.5 0.00 0.00 0.00 86 1013.6
20240418110926 3 63 4.8 14.5 0.00 0.00 0.00 86 1013.6
20240418110644 3 188 11.3 14.5 0.00 0.00 0.00 87 1013.5
20240418105927 3 93 8.0 14.5 0.00 0.00 0.00 85 1013.5
20240418105427 3 116 8.0 19.3 0.00 0.00 0.00 84 1013.4
20240418104928 3 28 8.0 19.3 0.00 0.00 0.00 83 1013.5
20240418104426 3 17 9.7 16.1 0.00 0.00 0.00 82 1013.4
20240418103927 3 80 3.2 14.5 0.00 0.00 0.00 82 1013.5
20240418103426 3 0 6.4 14.5 0.00 0.00 0.00 81 1013.5
20240418103411 3 28 4.8 11.3 0.00 0.00 0.00 82 1013.4
20240418102427 3 79 9.7 11.3 0.00 0.00 0.00 82 1013.5
20240418101926 3 30 8.0 14.5 0.00 0.00 0.00 82 1013.5
20240418101426 3 34 6.4 14.5 0.00 0.00 0.00 82 1013.5
20240418100926 3 35 9.7 11.3 0.00 0.00 0.00 81 1013.6
20240418100649 3 8 6.4 14.5 0.00 0.00 0.00 83 1013.6
20240418095926 3 96 9.7 14.5 0.00 0.00 0.00 83 1013.6
20240418095427 3 38 9.7 14.5 0.00 0.00 0.00 82 1013.6
20240418094926 2 24 6.4 14.5 0.00 0.00 0.00 83 1013.6
20240418094644 2 23 9.7 14.5 0.00 0.00 0.00 83 1013.6
20240418093926 2 48 9.7 14.5 0.00 0.00 0.00 84 1013.6
20240418093653 2 44 11.3 14.5 0.00 0.00 0.00 83 1013.7
20240418092926 2 31 9.7 14.5 0.00 0.00 0.00 84 1013.6
20240418092425 2 35 6.4 9.7 0.00 0.00 0.00 83 1013.6
20240418091925 2 55 6.4 14.5 0.00 0.00 0.00 84 1013.6
20240418091425 2 34 6.4 14.5 0.00 0.00 0.00 84 1013.5
20240418090924 2 31 8.0 17.7 0.00 0.00 0.00 84 1013.6
20240418090424 2 14 9.7 17.7 0.00 0.00 0.00 84 1013.6
20240418085924 2 23 9.7 17.7 0.00 0.00 0.00 84 1013.5
20240418085424 2 45 9.7 19.3 0.00 0.00 0.00 84 1013.4
20240418084924 2 32 6.4 19.3 0.00 0.00 0.00 84 1013.4
20240418084424 2 1 9.7 17.7 0.00 0.00 0.00 84 1013.3
20240418083924 2 350 8.0 20.9 0.00 0.00 0.00 84 1013.3
20240418083424 2 25 14.5 20.9 0.00 0.00 0.00 84 1013.3
20240418082924 2 11 12.9 22.5 0.00 0.00 0.00 84 1013.4
20240418082423 2 13 12.9 22.5 0.00 0.00 0.00 83 1013.3
20240418082152 2 44 6.4 16.1 0.00 0.00 0.00 84 1013.3
20240418081424 2 51 4.8 14.5 0.00 0.00 0.00 84 1013.4
20240418080923 1 52 8.0 20.9 0.00 0.00 0.00 84 1013.3
20240418080423 1 31 8.0 20.9 0.00 0.00 0.00 84 1013.4
20240418075923 1 23 11.3 19.3 0.00 0.00 0.00 84 1013.4
20240418075424 1 47 9.7 19.3 0.00 0.00 0.00 84 1013.4
20240418075141 1 42 4.8 14.5 0.00 0.00 0.00 84 1013.4
20240418074650 1 0 4.8 17.7 0.00 0.00 0.00 85 1013.4
20240418073923 1 52 11.3 17.7 0.00 0.00 0.00 84 1013.3
20240418073422 1 56 8.0 16.1 0.00 0.00 0.00 84 1013.3
20240418072922 1 337 6.4 14.5 0.00 0.00 0.00 85 1013.3
20240418072423 1 334 8.0 14.5 0.00 0.00 0.00 85 1013.3
20240418071923 1 1 8.0 14.5 0.00 0.00 0.00 85 1013.3
20240418071642 1 14 8.0 16.1 0.00 0.00 0.00 85 1013.3
20240418070920 1 35 9.7 16.1 0.00 0.00 0.00 85 1013.2
20240418070421 1 21 9.7 11.3 0.00 0.00 0.00 85 1013.3
20240418070140 1 10 6.4 16.1 0.00 0.00 0.00 85 1013.4
20240418065422 1 4 4.8 16.1 0.00 0.00 0.00 86 1013.2
20240418064920 1 353 9.7 17.7 0.00 0.00 0.00 86 1013.2
20240418064420 1 0 3.2 19.3 0.00 0.00 0.00 86 1013.2
20240418063921 1 0 11.3 19.3 0.00 0.00 0.00 86 1013.2
20240418063420 0 11 9.7 17.7 0.00 0.00 0.00 86 1013.2
20240418062921 0 35 4.8 17.7 0.00 0.00 0.00 86 1013.2
20240418062421 0 44 11.3 17.7 0.00 0.00 0.00 86 1013.2
20240418061922 0 62 8.0 20.9 0.00 0.00 0.00 86 1013.2
20240418061421 0 59 11.3 20.9 0.00 0.00 0.00 86 1013.2
20240418060921 0 323 8.0 22.5 0.00 0.00 0.00 86 1013.1
20240418060423 0 20 8.0 22.5 0.00 0.00 0.00 86 1013.0
20240418055920 0 0 11.3 19.3 0.00 0.00 0.00 86 1013.0
20240418055421 0 13 6.4 14.5 0.00 0.00 0.00 86 1013.0
20240418054920 0 14 6.4 14.5 0.00 0.00 0.00 86 1013.0
20240418054421 0 350 8.0 11.3 0.00 0.00 0.00 85 1012.9
20240418053920 0 23 6.4 16.1 0.00 0.00 0.00 85 1012.9
20240418053420 0 20 9.7 19.3 0.00 0.00 0.00 85 1013.0
20240418052920 0 8 8.0 19.3 0.00 0.00 0.00 85 1012.9
20240418052419 0 329 8.0 17.7 0.00 0.00 0.00 85 1012.9
20240418051919 0 20 4.8 17.7 0.00 0.00 0.00 85 1012.8
20240418051420 0 327 3.2 11.3 0.00 0.00 0.00 85 1012.9
20240418050920 0 0 3.2 14.5 0.00 0.00 0.00 85 1012.9
20240418050419 0 13 3.2 14.5 0.00 0.00 0.00 85 1012.9
20240418045919 0 24 4.8 9.7 0.00 0.00 0.00 85 1012.9
20240418045419 0 17 6.4 16.1 0.00 0.00 0.00 85 1012.9
20240418044920 0 326 9.7 16.1 0.00 0.00 0.00 85 1012.8
20240418044418 0 38 9.7 17.7 0.00 0.00 0.00 85 1012.8
20240418043918 0 16 9.7 17.7 0.00 0.00 0.00 85 1012.8
20240418043419 0 0 4.8 16.1 0.00 0.00 0.00 85 1012.8
20240418042918 0 350 3.2 16.1 0.00 0.00 0.00 85 1012.7
20240418042418 0 274 6.4 16.1 0.00 0.00 0.00 85 1012.7
20240418041918 0 326 3.2 16.1 0.00 0.00 0.00 85 1012.7
20240418041638 0 27 8.0 16.1 0.00 0.00 0.00 85 1012.7
20240418040919 0 51 6.4 11.3 0.00 0.00 0.00 85 1012.7
20240418040418 0 0 8.0 16.1 0.00 0.00 0.00 85 1012.7
20240418035917 0 48 4.8 16.1 0.00 0.00 0.00 85 1012.7
20240418035418 0 0 9.7 17.7 0.00 0.00 0.00 85 1012.6
20240418034918 0 31 8.0 17.7 0.00 0.00 0.00 85 1012.6
20240418034637 0 24 8.0 22.5 0.00 0.00 0.00 85 1012.6
20240418033917 0 10 14.5 22.5 0.00 0.00 0.00 85 1012.5
20240418033418 0 23 8.0 14.5 0.00 0.00 0.00 85 1012.5
20240418032917 0 358 6.4 16.1 0.00 0.00 0.00 84 1012.5
20240418032417 0 31 9.7 16.1 0.00 0.00 0.00 84 1012.5
20240418031916 0 30 3.2 16.1 0.00 0.00 0.00 85 1012.5
20240418031417 0 25 6.4 16.1 0.00 0.00 0.00 84 1012.5
20240418030917 0 17 9.7 17.7 0.00 0.00 0.00 84 1012.5
20240418030416 0 20 9.7 17.7 0.00 0.00 0.00 84 1012.4
20240418025914 0 35 11.3 17.7 0.00 0.00 0.00 84 1012.3
20240418025415 0 16 9.7 20.9 0.00 0.00 0.00 84 1012.4
20240418024914 0 13 12.9 20.9 0.00 0.00 0.00 84 1012.2
20240418024414 0 306 9.7 20.9 0.00 0.00 0.00 84 1012.2
20240418023914 0 27 14.5 20.9 0.00 0.00 0.00 84 1012.2
20240418023415 0 38 12.9 19.3 0.00 0.00 0.00 84 1012.2
20240418022914 0 30 12.9 19.3 0.00 0.00 0.00 84 1012.2
20240418022414 0 59 8.0 16.1 0.00 0.00 0.00 84 1012.2
20240418021914 0 14 9.7 17.7 0.00 0.00 0.00 84 1012.3
20240418021638 0 28 9.7 19.3 0.00 0.00 0.00 84 1012.2
20240418021343 0 0 12.9 19.3 0.00 0.00 0.00 84 1012.3
20240418015915 0 25 6.4 11.3 0.00 0.00 0.00 83 1012.3
20240418015415 0 18 6.4 11.3 0.00 0.00 0.00 83 1012.2
20240418015144 0 23 6.4 11.3 0.00 0.00 0.00 84 1012.2
20240418014415 0 16 3.2 11.3 0.00 0.00 0.00 84 1012.2
20240418013914 0 35 6.4 9.7 0.00 0.00 0.00 84 1012.1
20240418013414 0 13 3.2 8.0 0.00 0.00 0.00 84 1012.1
20240418013138 0 0 3.2 9.7 0.00 0.00 0.00 84 1012.1
20240418012412 0 0 3.2 9.7 0.00 0.00 0.00 84 1012.1
20240418011915 0 18 1.6 4.8 0.00 0.00 0.00 84 1012.1
20240418011413 0 31 1.6 4.8 0.00 0.00 0.00 83 1012.0
20240418010912 0 14 1.6 6.4 0.00 0.00 0.00 83 1012.1
20240418010412 0 55 4.8 9.7 0.00 0.00 0.00 83 1012.0
20240418005912 0 28 4.8 11.3 0.00 0.00 0.00 83 1012.0
20240418005413 0 20 6.4 17.7 0.00 0.00 0.00 83 1012.0
20240418004912 0 39 6.4 17.7 0.00 0.00 0.00 83 1012.0
20240418004412 0 23 8.0 17.7 0.00 0.00 0.00 83 1012.0
20240418003912 0 347 6.4 14.5 0.00 0.00 0.00 83 1012.0
20240418003411 0 0 8.0 14.5 0.00 0.00 0.00 83 1011.9
20240418002911 0 17 9.7 14.5 0.00 0.00 0.00 83 1011.9
20240418002411 0 316 8.0 11.3 0.00 0.00 0.00 83 1011.9
20240418001912 0 28 6.4 14.5 0.00 0.00 0.00 83 1011.9
20240418001411 0 355 8.0 14.5 0.00 0.00 0.00 82 1011.9
20240418000911 0 358 6.4 11.3 0.00 0.00 0.00 82 1011.8
20240418000410 0 18 6.4 14.5 0.00 0.00 0.00 82 1011.8
20240417235912 0 44 8.0 19.3 0.00 0.00 0.00 81 1011.9
20240417235411 0 42 8.0 22.5 0.00 0.00 0.00 81 1011.8
20240417235137 0 38 11.3 22.5 0.00 0.00 0.00 81 1011.8
20240417234411 0 24 9.7 16.1 0.00 0.00 0.00 81 1011.8
20240417233910 0 358 8.0 24.1 0.00 0.00 0.00 81 1011.8
20240417233410 0 42 16.1 24.1 0.00 0.00 0.00 81 1011.8
20240417232910 0 11 8.0 20.9 0.00 0.00 0.00 81 1011.8
20240417232410 0 17 8.0 16.1 0.00 0.00 0.00 82 1011.8
20240417231910 0 30 8.0 16.1 0.00 0.00 0.00 82 1011.8
20240417231410 0 353 9.7 16.1 0.00 0.00 0.00 82 1011.8
20240417230910 0 0 3.2 14.5 0.00 0.00 0.00 82 1011.7
20240417230628 0 51 4.8 9.7 0.00 0.00 0.00 82 1011.7
20240417225910 0 3 8.0 14.5 0.00 0.00 0.00 82 1011.7
20240417225409 0 14 6.4 14.5 0.00 0.00 0.00 82 1011.7
20240417224909 0 39 6.4 11.3 0.00 0.00 0.00 82 1011.7
20240417224631 0 7 8.0 11.3 0.00 0.00 0.00 82 1011.7
20240417223909 0 44 4.8 8.0 0.00 0.00 0.00 83 1011.7
20240417223411 0 336 3.2 9.7 0.00 0.00 0.00 83 1011.7
20240417222909 0 24 4.8 14.5 0.00 0.00 0.00 83 1011.7
20240417222409 0 18 6.4 14.5 0.00 0.00 0.00 83 1011.7
20240417221909 0 0 3.2 16.1 0.00 0.00 0.00 83 1011.8
20240417221409 0 350 4.8 16.1 0.00 0.00 0.00 84 1011.7
20240417221127 0 25 1.6 8.0 0.00 0.00 0.00 84 1011.7
20240417220409 0 14 1.6 14.5 0.00 0.00 0.00 84 1011.6
20240417220142 0 14 6.4 14.5 0.00 0.00 0.00 84 1011.5
20240417215408 0 24 6.4 11.3 0.00 0.00 0.00 84 1011.5
20240417214908 0 34 4.8 9.7 0.00 0.00 0.00 84 1011.4
20240417214407 0 30 3.2 9.7 0.00 0.00 0.00 84 1011.4
20240417213908 0 21 6.4 16.1 0.00 0.00 0.00 84 1011.4
20240417213629 0 0 6.4 16.1 0.00 0.00 0.00 84 1011.4
20240417213348 0 44 6.4 14.5 0.00 0.00 0.00 84 1011.3
20240417212408 0 31 4.8 17.7 0.00 0.00 0.00 84 1011.3
20240417211907 0 16 8.0 17.7 0.00 0.00 0.00 84 1011.3
20240417211408 0 0 4.8 8.0 0.00 0.00 0.00 83 1011.2
20240417211130 1 353 3.2 11.3 0.00 0.00 0.00 83 1011.1
20240417210407 1 25 6.4 16.1 0.00 0.00 0.00 83 1011.1
20240417205907 1 313 8.0 16.1 0.00 0.00 0.00 83 1011.0
20240417205409 1 0 4.8 14.5 0.00 0.00 0.00 82 1011.0
20240417204906 1 42 8.0 16.1 0.00 0.00 0.00 82 1011.0
20240417204633 1 4 3.2 16.1 0.00 0.00 0.00 82 1010.9
20240417204130 1 39 8.0 9.7 0.00 0.00 0.00 82 1010.8
20240417203630 1 8 6.4 9.7 0.00 0.00 0.00 82 1010.8
20240417202907 1 10 3.2 8.0 0.00 0.00 0.00 81 1010.7
20240417202625 1 16 4.8 8.0 0.00 0.00 0.00 81 1010.8
20240417201906 1 32 1.6 9.7 0.00 0.00 0.00 81 1010.8
20240417201407 1 18 6.4 9.7 0.00 0.00 0.00 81 1010.7
20240417201127 1 0 1.6 9.7 0.00 0.00 0.00 80 1010.7
20240417200407 1 24 4.8 9.7 0.00 0.00 0.00 80 1010.7
20240417195906 1 0 4.8 9.7 0.00 0.00 0.00 80 1010.7
20240417195405 1 25 3.2 9.7 0.00 0.00 0.00 79 1010.7
20240417195132 1 0 4.8 11.3 0.00 0.00 0.00 79 1010.7
20240417194405 1 0 4.8 14.5 0.00 0.00 0.00 79 1010.6
20240417193906 1 54 8.0 14.5 0.00 0.00 0.00 78 1010.6
20240417193405 2 37 8.0 11.3 0.00 0.00 0.00 78 1010.5
20240417192906 2 48 6.4 16.1 0.00 0.00 0.00 77 1010.5
20240417192405 2 35 4.8 20.9 0.00 0.00 0.00 76 1010.4
20240417191905 2 10 11.3 20.9 0.00 0.00 0.00 75 1010.4
20240417191404 2 28 11.3 16.1 0.00 0.00 0.00 75 1010.3
20240417190905 2 17 8.0 14.5 0.00 0.00 0.00 74 1010.3
20240417190626 2 11 8.0 14.5 0.00 0.00 0.00 73 1010.2
20240417185906 2 10 8.0 14.5 0.00 0.00 0.00 72 1010.2
20240417185406 2 317 6.4 16.1 0.00 0.00 0.00 70 1010.1
20240417184906 3 34 8.0 16.1 0.00 0.00 0.00 70 1010.1
20240417184406 3 16 11.3 16.1 0.00 0.00 0.00 67 1010.0
20240417183905 3 28 4.8 11.3 0.00 0.00 0.00 66 1010.0
20240417183404 3 0 3.2 11.3 0.00 0.00 0.00 65 1009.9
20240417182903 3 358 4.8 19.3 0.00 0.00 0.00 64 1009.9
20240417182405 3 35 9.7 19.3 0.00 0.00 0.00 64 1009.8
20240417181904 3 20 6.4 17.7 0.00 0.00 0.00 63 1009.8
20240417181404 3 30 9.7 17.7 0.00 0.00 0.00 62 1009.6
20240417180902 4 20 9.7 19.3 0.00 0.00 0.00 61 1009.5
20240417180620 4 23 8.0 19.3 0.00 0.00 0.00 60 1009.6
20240417175904 4 0 4.8 19.3 0.00 0.00 0.00 60 1009.4
20240417175402 4 10 8.0 19.3 0.00 0.00 0.00 59 1009.3
20240417175126 5 343 8.0 14.5 0.00 0.00 0.00 58 1009.3
20240417174403 5 32 4.8 14.5 0.00 0.00 0.00 57 1009.2
20240417173904 5 340 6.4 14.5 0.00 0.00 0.00 57 1009.1
20240417173404 5 331 4.8 16.1 0.00 0.00 0.00 56 1009.0
20240417172905 5 0 8.0 22.5 0.00 0.00 0.00 56 1009.0
20240417172402 5 20 8.0 22.5 0.00 0.00 0.00 55 1008.9
20240417171902 5 0 9.7 20.9 0.00 0.00 0.00 54 1009.0
20240417171402 5 6 17.7 20.9 0.00 0.00 0.00 53 1008.8
20240417171126 5 6 8.0 14.5 0.00 0.00 0.00 53 1008.8
20240417170404 5 11 9.7 17.7 0.00 0.00 0.00 52 1008.9
20240417165901 5 0 8.0 17.7 0.00 0.00 0.00 52 1008.9
20240417165401 6 4 11.3 19.3 0.00 0.00 0.00 51 1008.8
20240417164901 6 348 9.7 19.3 0.00 0.00 0.00 51 1008.8
20240417164402 6 340 8.0 17.7 0.00 0.00 0.00 52 1008.7